Wind_Speed
14 14 14 14 13 13 13 13 12 11 11 11 11 10 10 10 10 9 9 9 8 8 8 7 7 7 6 5 5 4 4 4 4 4 4 3 3 3 3 3 3 3 3
15 14 15 15 14 14 14 13 13 13 13 12 12 12 11 11 11 11 11 10 10 9 8 8 8 8 7 6 6 6 5 5 5 5 4 4 4 4 4 4 4 4 4
16 16 16 16 15 15 15 14 14 14 14 14 14 14 13 13 13 12 12 12 11 11 11 10 9 9 8 8 7 7 7 7 6 6 5 5 5 5 5 5 5 5 5
18 17 17 17 17 17 16 16 16 16 16 15 15 16 15 15 14 14 13 13 13 12 12 12 11 10 10 9 9 9 8 8 8 7 6 6 6 6 6 6 6 6 6
19 19 18 18 18 18 17 17 17 17 17 17 17 17 17 16 16 15 14 14 14 14 14 13 13 12 12 11 11 11 10 9 9 8 8 8 7 7 7 7 7 7 8
21 20 20 19 19 19 19 18 18 18 18 18 18 18 18 18 17 17 16 16 16 15 15 15 14 14 13 13 13 12 12 11 11 10 9 9 9 9 9 9 8 9 9
22 22 21 21 21 20 20 20 19 19 19 19 19 18 18 18 19 18 18 18 17 17 16 16 16 15 15 14 14 14 13 13 12 11 11 11 11 10 10 10 10 10 10
24 24 24 23 23 23 22 21 21 20 20 20 20 20 20 19 18 18 18 19 18 17 17 17 17 16 16 15 15 15 15 14 14 14 13 13 13 13 12 12 12 11 11
26 26 25 25 24 24 24 23 22 22 21 21 21 21 21 20 20 19 19 19 19 18 18 18 17 16 16 16 16 16 16 16 16 15 15 14 14 14 14 14 14 13 13
28 28 27 27 26 25 25 24 24 23 23 22 22 22 22 21 21 20 20 20 20 19 19 19 19 18 17 17 18 17 17 16 16 17 17 16 16 16 16 15 15 15 15
29 29 28 28 28 27 26 26 25 25 25 24 24 24 23 23 22 22 22 21 21 20 20 20 19 19 19 19 19 19 18 18 18 18 18 18 17 17 17 17 17 17 17
30 30 30 30 29 28 27 27 27 26 26 26 26 25 25 25 24 23 23 22 22 21 21 21 20 20 20 20 20 20 20 20 20 19 19 19 19 18 18 18 18 18 18
32 32 31 31 30 30 29 29 29 28 28 28 28 27 26 26 26 25 25 24 24 23 23 23 22 22 21 22 22 21 21 21 21 21 21 20 20 20 20 19 19 19 20
34 34 33 32 31 31 31 31 30 30 29 29 29 28 27 27 28 27 27 26 25 25 25 24 24 24 24 24 23 23 23 23 23 23 23 22 22 22 22 21 21 21 21
36 35 35 34 33 33 33 33 32 32 31 31 30 29 29 28 28 29 28 28 27 27 26 26 25 25 25 25 25 25 25 25 25 24 25 24 24 24 24 24 23 23 23
37 37 37 36 35 35 35 34 34 33 33 33 32 31 30 30 30 30 29 29 29 29 28 27 27 27 27 27 27 26 26 26 26 26 26 26 26 26 25 25 24 24 24
39 39 39 38 38 38 37 37 36 35 35 34 33 33 32 32 32 31 31 31 31 30 29 28 28 28 28 29 28 28 28 28 28 28 28 28 27 27 27 26 26 26 26
40 41 41 40 40 39 39 38 38 37 36 35 35 34 34 34 33 33 32 32 32 31 30 30 29 30 30 30 30 30 30 30 30 30 29 29 29 28 28 28 28 28 28
42 42 42 42 42 41 41 40 39 39 39 38 37 36 36 36 35 34 34 34 33 33 32 32 32 32 32 32 31 31 31 31 31 31 30 30 30 30 30 30 30 30 30
44 43 43 43 43 43 43 43 42 41 41 40 39 39 38 38 37 37 36 36 35 34 34 34 33 33 33 32 33 33 33 33 33 32 32 32 31 31 32 32 32 32 31
44 44 44 44 44 45 45 45 44 44 43 42 40 41 40 40 40 39 38 37 37 37 36 35 35 34 35 35 35 35 35 35 35 34 34 33 33 33 33 34 34 34 33
45 45 46 46 45 46 45 46 46 46 45 45 44 43 42 42 41 41 40 39 39 38 37 37 36 36 36 36 36 37 37 36 36 36 36 36 35 36 35 36 36 36 35
46 46 46 47 47 47 46 47 47 48 47 47 46 44 43 43 44 43 43 42 40 39 38 38 38 38 38 38 38 38 38 39 39 38 38 38 37 38 38 38 38 38 38
47 48 48 48 48 48 48 48 48 49 48 48 47 47 46 45 44 45 43 43 43 42 42 41 40 40 39 39 40 40 41 41 40 40 40 40 39 39 40 40 40 40 39
47 47 48 49 49 49 49 49 50 50 50 49 49 49 48 47 46 46 45 45 45 45 44 43 43 42 42 41 42 42 42 42 42 42 41 41 41 41 42 42 42 42 41
46 47 48 48 49 50 50 51 51 51 51 51 51 50 50 49 49 48 47 47 47 47 46 46 45 44 44 44 43 43 43 43 43 43 43 43 42 42 43 44 44 43 43
Wind_Direction
251 250 249 249 248 245 244 245 246 245 245 246 246 247 248 250 252 252 250 246 242 240 240 233 231 231 231 232 229 222 221 223 225 223 217 216 225 234 241 248 253 258 263
252 250 249 247 246 245 244 244 244 245 245 245 245 246 249 251 253 252 249 246 245 244 242 238 235 236 235 239 235 231 230 233 237 228 226 229 234 242 245 252 254 256 260
252 249 248 247 245 245 244 245 242 242 243 244 245 247 249 251 252 252 249 246 246 244 244 245 243 242 241 243 239 237 238 239 241 237 239 241 244 248 250 254 257 254 257
251 249 247 246 246 245 246 246 246 244 243 244 247 249 250 252 251 250 249 248 248 246 246 248 248 248 245 242 240 240 242 243 245 245 246 246 248 252 255 258 260 258 258
249 248 247 247 247 247 248 248 248 245 245 245 247 249 251 251 251 252 252 251 250 249 249 249 249 247 244 243 242 242 245 247 250 250 250 249 250 255 259 262 264 263 261
247 247 247 247 248 248 248 248 247 246 246 247 247 248 250 249 249 251 252 253 253 252 251 250 250 247 245 245 245 246 248 249 251 250 251 253 255 257 261 264 265 264 261
246 246 247 247 247 248 249 248 249 248 247 247 248 249 250 250 248 250 253 252 253 254 252 250 250 248 246 246 246 247 249 251 251 252 253 255 256 259 263 266 267 265 261
246 246 247 248 249 249 249 248 249 249 248 247 247 248 249 248 249 251 253 251 252 254 253 250 248 247 248 249 249 249 250 251 252 255 257 257 258 260 262 264 266 266 264
246 246 247 249 250 251 250 248 249 249 247 247 247 248 249 248 250 251 252 251 251 252 252 249 248 248 248 250 251 251 251 252 253 255 257 258 260 262 263 263 263 265 265
247 246 247 249 249 249 249 249 248 247 246 247 247 247 248 249 250 251 252 253 253 252 251 249 248 249 250 250 251 252 252 253 254 255 256 258 260 262 263 264 263 263 264
247 247 247 248 248 248 249 248 246 246 246 247 247 247 248 249 250 250 251 253 254 253 252 251 250 251 252 252 252 253 255 255 256 255 256 257 259 260 263 265 264 264 263
247 246 246 247 247 248 249 248 247 247 247 247 247 246 247 249 250 250 251 252 253 254 254 253 253 253 254 254 254 255 257 257 256 256 257 257 258 260 262 262 263 264 263
247 247 246 247 248 248 248 248 248 248 248 248 247 247 248 249 250 251 251 252 252 253 254 256 255 255 256 256 255 256 256 256 256 256 257 257 258 259 260 261 263 263 263
247 247 247 247 248 247 247 248 248 248 248 248 247 246 247 249 249 250 251 251 252 254 255 256 256 256 256 256 256 257 257 256 257 257 258 258 258 259 259 260 262 264 264
247 247 247 246 248 248 249 249 247 246 246 247 247 246 247 247 249 249 250 251 253 254 255 256 257 257 256 256 257 256 257 257 258 259 259 259 260 260 260 260 261 264 265
245 246 246 245 246 248 248 248 248 246 245 246 247 246 247 248 249 250 250 252 253 255 256 257 257 258 257 258 258 257 257 257 258 258 259 260 261 260 260 261 262 264 265
244 244 245 246 247 247 247 247 247 247 246 246 247 246 247 249 250 250 251 252 254 255 255 257 257 258 258 259 259 258 258 257 257 258 259 260 260 260 261 261 262 264 266
244 244 245 246 245 246 246 246 246 247 246 247 247 247 248 249 250 250 251 252 254 255 256 257 258 259 260 260 260 260 259 259 258 259 259 259 259 259 260 261 262 264 266
244 244 245 245 245 246 247 247 246 247 246 247 248 249 249 249 250 251 252 253 254 255 256 258 259 260 261 261 260 261 260 260 259 259 259 260 259 259 260 260 261 264 266
244 244 245 245 246 245 246 247 245 246 245 246 248 249 249 250 251 253 254 254 255 256 257 258 260 259 260 262 262 262 261 260 259 259 259 259 260 261 261 261 262 265 266
245 245 245 245 246 246 246 247 246 246 246 246 247 248 250 251 252 253 254 255 256 256 257 259 260 260 260 261 262 262 262 261 260 259 259 259 260 262 263 263 264 266 267
246 245 245 245 245 245 246 247 246 246 247 247 248 249 249 251 252 253 254 255 256 256 257 258 260 260 261 261 262 262 262 261 260 260 260 260 261 261 263 264 266 267 268
246 246 245 245 245 245 246 246 246 247 247 247 249 249 250 251 252 253 254 255 256 256 258 259 260 260 261 261 261 262 262 261 261 261 261 261 262 262 263 264 267 268 268
246 246 246 246 245 246 246 246 246 247 247 247 249 249 249 250 251 252 253 255 256 256 258 260 260 261 261 261 262 263 263 262 261 261 261 261 262 263 263 264 267 267 268
247 246 246 246 246 246 247 247 246 247 247 248 249 249 250 249 250 252 254 255 256 257 257 259 260 261 261 262 262 263 263 262 261 262 262 262 262 264 264 264 266 267 267
247 247 246 246 246 246 246 246 247 248 248 248 249 250 250 249 251 253 254 255 255 255 257 258 259 260 261 262 262 262 262 262 262 262 262 262 263 263 265 265 266 267 267
Height
5840 5840 5841 5841 5842 5842 5843 5843 5844 5845 5846 5847 5847 5848 5848 5848 5849 5849 5849 5850 5850 5850 5850 5850 5850 5850 5850 5850 5850 5851 5851 5851 5851 5851 5851 5851 5851 5851 5851 5851 5851 5850 5850
5837 5837 5838 5839 5839 5840 5841 5841 5842 5843 5844 5844 5845 5846 5846 5847 5847 5848 5848 5848 5848 5848 5849 5849 5849 5849 5849 5849 5849 5850 5850 5850 5850 5850 5850 5850 5850 5850 5850 5850 5850 5850 5850
5834 5835 5835 5836 5837 5838 5838 5839 5840 5840 5841 5842 5843 5844 5844 5845 5845 5846 5846 5847 5847 5847 5847 5847 5847 5848 5848 5848 5848 5848 5849 5849 5849 5849 5849 5850 5849 5849 5849 5849 5849 5849 5849
5830 5831 5832 5833 5834 5835 5835 5836 5837 5838 5838 5839 5840 5841 5842 5842 5843 5844 5844 5844 5845 5845 5845 5846 5846 5846 5846 5846 5847 5847 5847 5847 5848 5848 5848 5848 5848 5848 5848 5848 5848 5848 5848
5827 5828 5829 5830 5830 5831 5832 5833 5834 5835 5835 5836 5837 5838 5839 5840 5840 5841 5841 5842 5842 5843 5843 5844 5844 5844 5844 5845 5845 5845 5846 5846 5846 5846 5847 5847 5847 5847 5847 5847 5847 5847 5847
5823 5824 5825 5826 5827 5828 5829 5830 5831 5832 5832 5833 5834 5835 5836 5837 5837 5838 5839 5839 5840 5840 5841 5841 5842 5842 5842 5842 5843 5843 5844 5844 5844 5844 5845 5845 5845 5845 5845 5845 5845 5845 5845
5818 5820 5821 5822 5823 5824 5825 5826 5827 5828 5829 5830 5831 5832 5832 5834 5834 5835 5835 5836 5837 5837 5838 5838 5839 5839 5840 5840 5840 5841 5841 5842 5842 5842 5842 5843 5843 5843 5843 5843 5843 5843 5843
5814 5815 5816 5818 5819 5820 5821 5822 5823 5824 5825 5826 5827 5828 5829 5830 5831 5832 5832 5833 5833 5834 5834 5835 5835 5836 5837 5837 5837 5838 5838 5839 5839 5839 5840 5840 5841 5841 5841 5841 5841 5841 5841
5809 5810 5811 5813 5814 5815 5816 5817 5819 5820 5821 5822 5823 5824 5825 5826 5827 5828 5829 5829 5830 5830 5831 5831 5832 5833 5833 5834 5834 5835 5835 5836 5836 5837 5837 5837 5838 5838 5838 5838 5839 5839 5839
5803 5805 5806 5807 5809 5810 5811 5813 5814 5815 5816 5817 5819 5820 5821 5822 5823 5824 5825 5825 5826 5826 5827 5828 5829 5829 5830 5830 5831 5831 5832 5832 5833 5833 5834 5834 5834 5835 5835 5835 5836 5836 5836
5797 5799 5800 5802 5803 5805 5806 5807 5809 5810 5812 5813 5814 5815 5816 5817 5818 5819 5820 5821 5822 5822 5823 5824 5825 5825 5826 5826 5827 5828 5828 5829 5829 5830 5830 5830 5831 5831 5832 5832 5832 5832 5832
5791 5793 5794 5796 5797 5799 5800 5802 5803 5805 5806 5808 5809 5810 5811 5812 5814 5815 5816 5817 5817 5818 5819 5820 5820 5821 5822 5822 5823 5823 5824 5824 5825 5825 5826 5826 5827 5827 5828 5828 5828 5829 5829
5784 5786 5788 5790 5791 5793 5795 5796 5798 5799 5801 5802 5803 5805 5806 5807 5808 5810 5811 5812 5813 5813 5814 5815 5816 5816 5817 5818 5818 5819 5819 5820 5820 5821 5821 5822 5822 5823 5823 5824 5824 5825 5825
5777 5779 5781 5783 5784 5786 5788 5789 5791 5793 5794 5796 5797 5799 5800 5802 5803 5804 5805 5806 5807 5808 5809 5810 5810 5811 5812 5812 5813 5814 5814 5815 5815 5816 5816 5817 5817 5818 5819 5819 5820 5820 5820
5769 5771 5773 5775 5777 5779 5781 5783 5784 5786 5788 5789 5791 5793 5794 5796 5797 5798 5799 5800 5801 5802 5803 5804 5805 5805 5806 5807 5807 5808 5808 5809 5810 5810 5811 5812 5812 5813 5813 5814 5815 5815 5815
5761 5763 5765 5767 5769 5771 5773 5775 5777 5779 5781 5783 5784 5786 5788 5789 5791 5792 5793 5794 5795 5796 5797 5798 5799 5799 5800 5801 5801 5802 5802 5803 5804 5804 5805 5806 5806 5807 5807 5808 5809 5809 5810
5752 5754 5757 5759 5761 5763 5765 5767 5769 5771 5773 5775 5777 5779 5781 5782 5784 5785 5786 5788 5789 5789 5790 5791 5792 5793 5794 5794 5795 5795 5796 5796 5797 5798 5799 5799 5800 5801 5801 5802 5802 5803 5803
5742 5745 5747 5750 5752 5754 5756 5758 5761 5763 5765 5767 5769 5771 5773 5775 5776 5777 5779 5780 5781 5782 5783 5784 5785 5786 5786 5787 5787 5788 5789 5789 5790 5791 5791 5792 5793 5794 5795 5795 5796 5796 5797
5732 5735 5738 5740 5742 5744 5747 5749 5752 5754 5757 5759 5761 5763 5765 5767 5768 5769 5771 5772 5774 5775 5776 5777 5778 5778 5779 5779 5780 5780 5781 5781 5782 5783 5784 5785 5786 5786 5787 5788 5789 5789 5789
5721 5724 5727 5730 5732 5734 5737 5739 5742 5744 5747 5749 5752 5754 5756 5758 5760 5761 5763 5764 5765 5767 5768 5769 5769 5770 5771 5771 5772 5772 5773 5773 5774 5775 5776 5777 5778 5779 5780 5780 5781 5781 5781
5710 5713 5716 5719 5722 5724 5727 5729 5732 5734 5737 5740 5743 5745 5747 5749 5751 5753 5754 5755 5757 5758 5759 5760 5761 5762 5762 5763 5764 5764 5765 5765 5766 5767 5768 5768 5769 5770 5771 5772 5772 5772 5772
5699 5702 5704 5707 5710 5713 5716 5719 5722 5724 5727 5730 5732 5735 5737 5739 5741 5743 5744 5746 5747 5749 5750 5751 5752 5753 5753 5754 5755 5755 5756 5757 5757 5758 5759 5759 5760 5761 5762 5762 5763 5763 5763
5687 5690 5693 5695 5698 5701 5704 5707 5710 5713 5716 5719 5721 5724 5726 5728 5730 5733 5734 5736 5738 5739 5740 5741 5742 5743 5744 5745 5745 5746 5746 5747 5748 5749 5750 5750 5751 5751 5752 5753 5753 5753 5753
5675 5678 5681 5684 5686 5689 5692 5696 5699 5702 5705 5708 5710 5713 5715 5718 5720 5721 5723 5725 5727 5729 5730 5731 5732 5733 5734 5734 5735 5736 5737 5737 5738 5739 5740 5740 5741 5741 5742 5742 5742 5742 5742
5662 5665 5668 5671 5674 5677 5680 5683 5687 5690 5693 5696 5698 5701 5703 5706 5708 5710 5712 5714 5716 5717 5719 5720 5721 5722 5723 5724 5724 5725 5726 5726 5727 5728 5729 5730 5730 5730 5730 5731 5731 5731 5730
5650 5653 5656 5659 5662 5665 5668 5671 5674 5677 5680 5683 5686 5689 5691 5694 5696 5698 5700 5702 5704 5706 5707 5709 5710 5711 5711 5712 5713 5713 5714 5715 5716 5716 5717 5718 5719 5719 5719 5719 5719 5719 5719